Miscellaneous Local Product
Issued by NWS Hastings, NE

Home | Current Version | Previous Version | Graphics & Text | Print | Product List | Glossary On
Versions: 1 2 3 4 5 6 7 8 9 10 11 12 13 14 15 16 17 18 19 20 21 22 23 24 25 26 27 28 29 30 31 32 33 34 35 36 37 38 39 40 41 42 43 44 45 46 47 48 49 50
756
AXUS43 KGID 272102
MISGRI

GID CWA HOURLY WEATHER ROUNDUP
NATIONAL WEATHER SERVICE HASTINGS NE
400 PM CDT TUE SEP 27 2016

NOTE: "FAIR" INDICATES FEW OR NO CLOUDS BELOW 12,000 FEET WITH NO
SIGNIFICANT WEATHER AND/OR OBSTRUCTIONS TO VISIBILITY.

...SOUTH CENTRAL NEBRASKA...

CITY           SKY/WX    TMP DP  RH WIND       PRES   REMARKS
GRAND ISLAND   SUNNY     82  44  26 NW17      29.93F
HASTINGS       SUNNY     82  44  26 NW9       29.95F
KEARNEY        SUNNY     82  43  24 W10G25    29.94F
ORD            SUNNY     82  42  24 NW20G25   29.91F
YORK           SUNNY     79  45  29 W8        29.93F
AURORA         SUNNY     80  44  27 W8G17     29.92F
LEXINGTON      SUNNY     84  45  25 NW6       29.96F
HOLDREGE       SUNNY     81  41  23 W9        29.97F
HEBRON         SUNNY     81  44  26 W8        29.93F

...NEBRASKA PANHANDLE...

CITY           SKY/WX    TMP DP  RH WIND       PRES   REMARKS
CHADRON        SUNNY     85  34  16 NW12G21   30.00F
ALLIANCE       SUNNY     84  32  15 NW8G18    30.04F
SCOTTSBLUFF    SUNNY     83  37  19 VRB5      30.07F
SIDNEY         SUNNY     84  33  16 W7        30.09F

...WESTERN AND NORTH CENTRAL NEBRASKA...

CITY           SKY/WX    TMP DP  RH WIND       PRES   REMARKS
VALENTINE      SUNNY     83  34  17 NW17G24   29.95F
AINSWORTH      SUNNY     81  44  27 NW15      29.95F
ONEILL         SUNNY     80  39  22 W9        29.92F
BROKEN BOW     SUNNY     86  43  22 NW16      29.94F
IMPERIAL       SUNNY     85  35  16 W8G20     30.02F
NORTH PLATTE   SUNNY     86  44  23 W10       29.97F
MCCOOK         SUNNY     84  43  23 W14G20    29.99F

...EASTERN NEBRASKA...

CITY           SKY/WX    TMP DP  RH WIND       PRES   REMARKS
NORFOLK        SUNNY     78  43  28 NW8G18    29.90F
SO SIOUX CITY  SUNNY     76  44  32 NW14      29.88F
TEKAMAH        SUNNY     78  40  25 NW8       29.88F
COLUMBUS       SUNNY     81  45  28 NW13G18   29.91F
ALBION         SUNNY     79  43  27 W10       29.91F
OMAHA EPPLEY   SUNNY     79  42  26 NW13      29.89F
OFFUTT AFB     SUNNY     77  45  32 W8        29.88F
MILLARD        SUNNY     77  45  32 W7        29.89F
LINCOLN        SUNNY     81  45  28 W12       29.91F
NEBRASKA CITY  SUNNY     77  29  16 W6        29.90F
BEATRICE       SUNNY     81  49  32 NW9       29.91F
FALLS CITY     SUNNY     77  49  37 NW10      29.90F

...NORTHERN KANSAS...

CITY           SKY/WX    TMP DP  RH WIND       PRES   REMARKS
GOODLAND       SUNNY     84  34  16 SW9       30.05F
HILL CITY      SUNNY     84  50  30 SW6       29.99F HAZE
NORTON         CLEAR     86  36  16 S6G16     29.98F
PHILLIPSBURG   SUNNY     84  43  23 W8        29.97F
SMITH CENTER   SUNNY     82  43  24 W13       29.96F
HAYS           SUNNY     86  45  23 NW10      29.98F
RUSSELL        SUNNY     84  47  27 W13       29.96F
CONCORDIA      SUNNY     83  46  27 W7        29.94F
SALINA         SUNNY     86  48  26 W15       29.95F
TOPEKA         SUNNY     81  49  32 SW8       29.91F



USA.gov is the U.S. government's official web portal to all federal, state and local government web resources and services.